Location: Sears
(37.7625°N, 100.1060°W)
Time: 07:49:37
(UTC+00:00)

X-37B - Pass Details

Date: 08 August 2021
Orbit: 381 x 393 km, 45.0° (Epoch: 29 August)

Event Time Altitude Azimuth Distance (km) Brightness Sun altitude
Exits shadow 09:18:50 21° 10° (N) 921 3.0 -25.4°
Drops below altitude 10° 09:20:49 10° 47° (NE) 1,397 4.4 -25.1°
Sets 09:23:10 0° 64° (ENE) 2,250 5.6 -24.8°
